Meteo pe oră la Bolshie Korchicy

Astăzi, 18 Mai, Marţi

Timp Temperatura Precipitaţii Vânt Presiune Umiditate
00:00 +13°C° 0 mm 1 m/s 739 mmHg 85%
01:00 +13°C° 0 mm 2 m/s 739 mmHg 86%
02:00 +12°C° 0 mm 2 m/s 739 mmHg 87%
03:00 +13°C° 0 mm 2 m/s 738 mmHg 87%
04:00 +13°C° 0 mm 2 m/s 738 mmHg 88%
05:00 +13°C° 0 mm 2 m/s 738 mmHg 88%
06:00 +14°C° 0.2 mm 2 m/s 738 mmHg 88%
07:00 +14°C° 0.2 mm 2 m/s 738 mmHg 88%
08:00 +15°C° 0.2 mm 2 m/s 738 mmHg 88%
09:00 +15°C° 1.4 mm 2 m/s 738 mmHg 88%
10:00 +14°C° 1.4 mm 3 m/s 738 mmHg 88%
11:00 +14°C° 1.4 mm 3 m/s 738 mmHg 87%
12:00 +14°C° 1.3 mm 3 m/s 738 mmHg 88%
13:00 +14°C° 1.3 mm 3 m/s 738 mmHg 88%
14:00 +14°C° 1.3 mm 3 m/s 738 mmHg 88%
15:00 +14°C° 1.2 mm 3 m/s 738 mmHg 89%
16:00 +14°C° 1.2 mm 3 m/s 738 mmHg 90%
17:00 +13°C° 1.2 mm 3 m/s 738 mmHg 91%
18:00 +13°C° 0.5 mm 3 m/s 739 mmHg 91%
19:00 +14°C° 0.5 mm 2 m/s 739 mmHg 92%
20:00 +14°C° 0.5 mm 2 m/s 739 mmHg 92%
21:00 +12°C° 0.2 mm 3 m/s 739 mmHg 93%
22:00 +12°C° 0.2 mm 3 m/s 739 mmHg 93%
23:00 +12°C° 0.2 mm 4 m/s 739 mmHg 94%

Mâine, 19 Mai, Miercuri

Timp Temperatura Precipitaţii Vânt Presiune Umiditate
00:00 +11°C° 0 mm 4 m/s 739 mmHg 95%
01:00 +10°C° 0 mm 5 m/s 740 mmHg 95%
02:00 +10°C° 0 mm 5 m/s 740 mmHg 96%
03:00 +10°C° 0 mm 5 m/s 740 mmHg 95%
04:00 +10°C° 0 mm 4 m/s 741 mmHg 95%
05:00 +10°C° 0 mm 4 m/s 741 mmHg 95%
06:00 +9°C° 0.2 mm 5 m/s 741 mmHg 95%
07:00 +9°C° 0.2 mm 5 m/s 742 mmHg 95%
08:00 +9°C° 0.2 mm 5 m/s 742 mmHg 94%
09:00 +10°C° 0.1 mm 5 m/s 743 mmHg 91%
10:00 +10°C° 0.1 mm 5 m/s 743 mmHg 87%
11:00 +12°C° 0.1 mm 5 m/s 743 mmHg 84%
12:00 +13°C° 0 mm 5 m/s 743 mmHg 79%
13:00 +14°C° 0 mm 5 m/s 743 mmHg 75%
14:00 +15°C° 0 mm 5 m/s 744 mmHg 71%
15:00 +14°C° 0.1 mm 5 m/s 744 mmHg 72%
16:00 +14°C° 0.1 mm 4 m/s 744 mmHg 73%
17:00 +14°C° 0.1 mm 4 m/s 744 mmHg 75%
18:00 +13°C° 0 mm 3 m/s 744 mmHg 79%
19:00 +12°C° 0 mm 3 m/s 744 mmHg 83%
20:00 +12°C° 0 mm 2 m/s 745 mmHg 86%
21:00 +10°C° 0 mm 2 m/s 745 mmHg 89%
22:00 +10°C° 0 mm 2 m/s 745 mmHg 91%
23:00 +9°C° 0 mm 3 m/s 745 mmHg 93%

Poimâine, 20 Mai, Joi

Timp Temperatura Precipitaţii Vânt Presiune Umiditate
00:00 +9°C° 0 mm 3 m/s 745 mmHg 94%
01:00 +8°C° 0 mm 3 m/s 745 mmHg 95%
02:00 +8°C° 0 mm 3 m/s 745 mmHg 96%
03:00 +8°C° 0 mm 3 m/s 745 mmHg 96%
04:00 +8°C° 0 mm 3 m/s 745 mmHg 97%
05:00 +7°C° 0 mm 3 m/s 745 mmHg 97%
06:00 +9°C° 0 mm 3 m/s 745 mmHg 92%
07:00 +10°C° 0 mm 4 m/s 745 mmHg 87%
08:00 +10°C° 0 mm 5 m/s 746 mmHg 82%
09:00 +12°C° 0 mm 5 m/s 746 mmHg 76%
10:00 +13°C° 0 mm 5 m/s 746 mmHg 70%
11:00 +14°C° 0 mm 5 m/s 746 mmHg 64%
12:00 +15°C° 0 mm 5 m/s 746 mmHg 61%
13:00 +15°C° 0 mm 5 m/s 745 mmHg 57%
14:00 +16°C° 0 mm 6 m/s 745 mmHg 54%
15:00 +16°C° 0 mm 5 m/s 745 mmHg 57%
16:00 +16°C° 0 mm 5 m/s 745 mmHg 60%
17:00 +16°C° 0 mm 5 m/s 745 mmHg 63%
18:00 +14°C° 0 mm 5 m/s 745 mmHg 67%
19:00 +13°C° 0 mm 5 m/s 745 mmHg 72%
20:00 +12°C° 0 mm 5 m/s 746 mmHg 76%
21:00 +10°C° 0 mm 5 m/s 746 mmHg 75%
22:00 +9°C° 0 mm 5 m/s 746 mmHg 75%
23:00 +9°C° 0 mm 5 m/s 746 mmHg 74%

21 Mai, Vineri

Timp Temperatura Precipitaţii Vânt Presiune Umiditate
00:00 +8°C° 0 mm 5 m/s 747 mmHg 78%
01:00 +7°C° 0 mm 5 m/s 747 mmHg 82%
02:00 +7°C° 0 mm 5 m/s 747 mmHg 86%
03:00 +6°C° 0 mm 5 m/s 748 mmHg 83%
04:00 +5°C° 0 mm 5 m/s 748 mmHg 81%
05:00 +5°C° 0 mm 4 m/s 748 mmHg 78%
06:00 +6°C° 0 mm 5 m/s 748 mmHg 74%
07:00 +7°C° 0 mm 5 m/s 749 mmHg 70%
08:00 +8°C° 0 mm 6 m/s 749 mmHg 66%
09:00 +9°C° 0 mm 6 m/s 749 mmHg 62%
10:00 +11°C° 0 mm 6 m/s 749 mmHg 58%
11:00 +13°C° 0 mm 6 m/s 749 mmHg 54%
12:00 +14°C° 0 mm 6 m/s 749 mmHg 51%
13:00 +14°C° 0 mm 6 m/s 749 mmHg 48%
14:00 +15°C° 0 mm 6 m/s 749 mmHg 46%
15:00 +14°C° 0 mm 5 m/s 749 mmHg 49%
16:00 +14°C° 0 mm 5 m/s 749 mmHg 52%
17:00 +14°C° 0 mm 4 m/s 749 mmHg 56%
18:00 +12°C° 0 mm 4 m/s 749 mmHg 62%
19:00 +11°C° 0 mm 3 m/s 749 mmHg 68%
20:00 +9°C° 0 mm 2 m/s 749 mmHg 73%
21:00 +9°C° 0 mm 2 m/s 749 mmHg 76%
22:00 +8°C° 0 mm 2 m/s 749 mmHg 78%
23:00 +7°C° 0 mm 2 m/s 749 mmHg 81%

22 Mai, Sâmbătă

Timp Temperatura Precipitaţii Vânt Presiune Umiditate
00:00 +7°C° 0 mm 2 m/s 749 mmHg 80%
01:00 +7°C° 0 mm 2 m/s 749 mmHg 79%
02:00 +8°C° 0 mm 2 m/s 748 mmHg 78%
03:00 +8°C° 0 mm 2 m/s 748 mmHg 80%
04:00 +7°C° 0 mm 2 m/s 748 mmHg 82%
05:00 +7°C° 0 mm 2 m/s 748 mmHg 84%
06:00 +9°C° 0 mm 2 m/s 748 mmHg 79%
07:00 +11°C° 0 mm 3 m/s 748 mmHg 74%
08:00 +12°C° 0 mm 3 m/s 748 mmHg 69%
09:00 +14°C° 0 mm 4 m/s 748 mmHg 64%
10:00 +15°C° 0 mm 5 m/s 748 mmHg 59%
11:00 +17°C° 0 mm 5 m/s 747 mmHg 54%
12:00 +17°C° 0 mm 5 m/s 747 mmHg 53%
13:00 +19°C° 0 mm 5 m/s 747 mmHg 53%
14:00 +19°C° 0 mm 6 m/s 747 mmHg 52%
15:00 +19°C° 0 mm 5 m/s 747 mmHg 54%
16:00 +19°C° 0 mm 5 m/s 746 mmHg 56%
17:00 +19°C° 0 mm 5 m/s 746 mmHg 58%
18:00 +18°C° 0 mm 4 m/s 746 mmHg 63%
19:00 +15°C° 0 mm 4 m/s 746 mmHg 69%
20:00 +14°C° 0 mm 4 m/s 746 mmHg 74%
21:00 +13°C° 0 mm 4 m/s 746 mmHg 73%
22:00 +13°C° 0 mm 4 m/s 746 mmHg 73%
23:00 +12°C° 0 mm 4 m/s 746 mmHg 72%

23 Mai, Duminică

Timp Temperatura Precipitaţii Vânt Presiune Umiditate
00:00 +12°C° 0 mm 4 m/s 746 mmHg 73%
01:00 +12°C° 0 mm 3 m/s 746 mmHg 74%
02:00 +12°C° 0 mm 3 m/s 746 mmHg 75%
03:00 +12°C° 0 mm 3 m/s 745 mmHg 77%
04:00 +11°C° 0 mm 3 m/s 745 mmHg 78%
05:00 +11°C° 0 mm 3 m/s 745 mmHg 80%
06:00 +11°C° 0.3 mm 3 m/s 745 mmHg 83%
07:00 +12°C° 0.3 mm 4 m/s 745 mmHg 85%
08:00 +12°C° 0.3 mm 4 m/s 745 mmHg 88%
09:00 +12°C° 0.4 mm 4 m/s 746 mmHg 90%
10:00 +12°C° 0.4 mm 5 m/s 746 mmHg 91%
11:00 +10°C° 0.4 mm 5 m/s 746 mmHg 92%
12:00 +12°C° 0.1 mm 4 m/s 747 mmHg 89%
13:00 +12°C° 0.1 mm 4 m/s 747 mmHg 86%
14:00 +12°C° 0.1 mm 3 m/s 748 mmHg 83%
15:00 +14°C° 0 mm 2 m/s 747 mmHg 77%
16:00 +15°C° 0 mm 2 m/s 747 mmHg 70%
17:00 +16°C° 0 mm 2 m/s 747 mmHg 64%
18:00 +15°C° 0 mm 2 m/s 747 mmHg 69%
19:00 +14°C° 0 mm 2 m/s 748 mmHg 74%
20:00 +13°C° 0 mm 2 m/s 748 mmHg 79%
21:00 +12°C° 0 mm 1 m/s 748 mmHg 81%
22:00 +11°C° 0 mm 1 m/s 748 mmHg 83%
23:00 +10°C° 0 mm 1 m/s 748 mmHg 85%
Arată mai mult

Formular de consimțământ

Meteoprog și furnizorii noștri de servicii pot stoca și accesa date personale, precum cookies, identificatori de dispozitiv sau alte tehnologii similare pe dispozitivul dumneavoastră și procesa astfel de date pentru a personaliza conținutul și reclamele, dar și pentru a oferi caracteristici de social media și pentru a analiza traficul.

  • Stocarea și/sau accesarea informațiilor pe dispozitivul dumneavoastră

    Cookies, identificatori de dispozitiv sau alte informații pot fi stocate sau accesate pe dispozitiv în scopurile indicate mai sus.

  • Reclame și conținut personalizat, evaluarea reclamelor și a conținutului, informații despre audiențe și dezvoltarea produselor

    Reclamele și conținutul pot fi personalizate pe baza unui profil. Pot fi adăugate date suplimentare pentru a personaliza mai bine reclamele și conținutul. Performanța reclamelor și conținutului poate fi măsurată. Pot fi obținute informații despre utilizatorii care au văzut reclamele și conținutul. Aceste date pot fi utilizate pentru a dezvolta sau îmbunătăți experiența utilizatorilor, sistemele și software-ul.

Dând clic pe ‘Sunt de acord’, permiteți utilizarea cookie-urilor menționate, a identificatorilor de dispozitiv, balizelor web sau altor tehnologii similare. Setările pot fi modificate din browser-ul dispozitivului dumneavoastră.

În anumite scopuri, interesele legitime pot prima asupra consimțământului. Puteți citi mai multe informații în acest sens în Politica privind Confidențialitatea Datelor și Cookie.